Location: Ferintosh
(52.7647°N, 112.9692°W)
Time: 23:29:20
(UTC+00:00)

A-11 Canister half - Pass Details

Date: 26 May 2024
Orbit: 1524 x 1683 km, 47.3° (Epoch: 20 June)

Event Time Altitude Azimuth Distance (km) Brightness Sun altitude
Rises 05:35:06 0° 249° (WSW) 4,690 11.6 -12.0°
Reaches altitude 10° 05:38:09 10° 246° (WSW) 3,721 11.1 -12.2°
Maximum altitude 05:47:21 61° 169° (S) 1,751 9.0 -12.8°
Drops below altitude 10° 05:56:51 10° 93° (E) 3,840 10.8 -13.4°
Sets 06:00:03 0° 90° (E) 4,848 11.4 -13.5°
